Temp
-9 -9 -9 -8 -8 -8 -8 -8 -7 -7 -7 -7 -8 -7 -7 -8 -8 -9 -10 -10 -11 -11 -12 -12 -12 -12 -12 -12 -12 -12 -11 -10 -11 -11 -11 -11 -10 -11 -11 -11 -10 -10 -10 -10 -10 -9 -9 -9 -9
-9 -8 -8 -8 -7 -8 -8 -7 -7 -7 -7 -7 -7 -7 -8 -9 -9 -9 -10 -10 -11 -12 -12 -12 -12 -13 -12 -13 -12 -11 -11 -11 -11 -11 -11 -11 -11 -11 -11 -11 -10 -10 -10 -10 -10 -10 -9 -9 -9
-9 -8 -8 -8 -7 -8 -8 -7 -7 -8 -8 -7 -8 -8 -8 -8 -9 -9 -10 -10 -11 -12 -12 -12 -12 -12 -12 -12 -12 -11 -11 -11 -11 -11 -11 -11 -11 -11 -11 -10 -10 -10 -10 -10 -10 -9 -9 -9 -9
-9 -8 -8 -7 -8 -8 -8 -8 -8 -8 -8 -7 -8 -8 -8 -8 -9 -9 -9 -10 -11 -11 -12 -12 -12 -11 -12 -12 -11 -11 -11 -11 -11 -11 -11 -11 -11 -11 -11 -10 -10 -10 -10 -10 -10 -10 -9 -9 -9
-9 -8 -8 -8 -8 -8 -8 -8 -9 -8 -8 -8 -8 -8 -8 -9 -8 -8 -9 -9 -10 -11 -11 -11 -11 -11 -11 -11 -11 -11 -11 -11 -11 -11 -11 -11 -11 -11 -10 -10 -10 -10 -10 -10 -10 -10 -10 -9 -10
-9 -9 -8 -8 -8 -8 -8 -8 -9 -8 -8 -8 -8 -8 -9 -9 -8 -8 -8 -9 -9 -9 -10 -10 -10 -11 -10 -11 -10 -10 -10 -11 -11 -11 -11 -11 -10 -11 -11 -10 -10 -10 -10 -10 -10 -10 -10 -10 -10
-9 -9 -9 -8 -9 -8 -9 -9 -9 -8 -8 -8 -8 -9 -9 -9 -8 -8 -8 -8 -8 -8 -9 -9 -10 -10 -10 -11 -10 -10 -11 -11 -11 -11 -11 -10 -10 -10 -10 -10 -10 -10 -10 -10 -10 -10 -10 -10 -10
-9 -9 -9 -8 -9 -9 -9 -9 -9 -9 -8 -9 -9 -9 -9 -9 -8 -8 -8 -8 -8 -8 -8 -9 -9 -10 -10 -10 -10 -10 -11 -11 -11 -11 -10 -10 -10 -10 -10 -11 -11 -10 -10 -10 -10 -10 -10 -11 -11
-9 -9 -9 -8 -9 -9 -9 -9 -10 -9 -9 -9 -9 -9 -9 -9 -9 -9 -8 -8 -8 -8 -8 -9 -9 -9 -10 -10 -10 -10 -10 -10 -10 -10 -10 -11 -10 -10 -11 -10 -10 -10 -10 -10 -10 -10 -11 -11 -11
-10 -9 -9 -9 -9 -9 -9 -9 -10 -10 -9 -10 -10 -10 -10 -10 -10 -10 -8 -8 -8 -7 -8 -8 -9 -10 -10 -10 -10 -10 -11 -11 -11 -11 -11 -10 -11 -11 -10 -10 -10 -10 -10 -10 -10 -11 -11 -11 -11
-10 -10 -10 -9 -9 -9 -9 -9 -10 -9 -9 -10 -10 -10 -10 -10 -10 -10 -9 -9 -8 -8 -8 -8 -9 -9 -10 -10 -10 -10 -11 -11 -11 -11 -11 -11 -10 -10 -10 -10 -10 -10 -10 -11 -11 -11 -11 -11 -11
-10 -9 -9 -9 -9 -10 -10 -10 -10 -10 -10 -9 -10 -10 -10 -10 -10 -10 -10 -10 -10 -9 -9 -8 -8 -9 -9 -10 -10 -10 -10 -11 -11 -10 -10 -10 -10 -10 -10 -10 -10 -10 -11 -11 -11 -11 -11 -12 -12
-10 -10 -9 -9 -9 -9 -10 -10 -10 -10 -10 -10 -11 -10 -11 -10 -10 -10 -10 -10 -10 -9 -9 -9 -9 -9 -9 -9 -10 -10 -10 -10 -10 -10 -10 -10 -10 -10 -10 -10 -11 -11 -11 -11 -11 -11 -12 -12 -12
-10 -10 -10 -10 -9 -9 -10 -10 -10 -11 -10 -10 -11 -11 -10 -11 -11 -10 -10 -11 -10 -10 -10 -9 -9 -9 -9 -9 -10 -10 -10 -10 -10 -10 -10 -10 -11 -10 -11 -11 -11 -11 -11 -11 -11 -12 -12 -12 -12
-11 -10 -10 -10 -10 -9 -9 -10 -10 -11 -10 -11 -11 -11 -11 -11 -11 -11 -10 -10 -11 -11 -10 -10 -9 -9 -10 -10 -10 -10 -10 -10 -10 -11 -10 -10 -11 -11 -11 -11 -11 -11 -11 -11 -11 -12 -12 -12 -12
-11 -11 -10 -10 -10 -10 -9 -9 -10 -11 -11 -10 -11 -11 -11 -11 -11 -11 -11 -10 -10 -11 -11 -11 -11 -11 -10 -10 -10 -10 -10 -10 -10 -11 -11 -11 -11 -11 -11 -11 -11 -11 -11 -11 -11 -11 -12 -12 -12
-11 -10 -10 -11 -10 -10 -9 -10 -10 -10 -11 -11 -10 -11 -11 -11 -10 -11 -11 -11 -11 -11 -11 -11 -11 -11 -11 -10 -10 -11 -10 -11 -11 -11 -11 -11 -11 -11 -11 -11 -11 -11 -11 -11 -11 -11 -11 -12 -12
-10 -11 -10 -10 -10 -11 -10 -10 -10 -10 -11 -11 -10 -11 -11 -11 -11 -11 -11 -11 -11 -11 -11 -10 -10 -11 -10 -10 -10 -10 -10 -11 -11 -11 -11 -11 -11 -11 -11 -11 -11 -11 -11 -11 -11 -11 -11 -11 -11
-12 -11 -11 -11 -12 -11 -11 -11 -10 -10 -11 -11 -11 -10 -10 -10 -11 -10 -10 -10 -10 -10 -10 -10 -10 -10 -10 -10 -10 -10 -11 -11 -11 -11 -11 -11 -11 -11 -11 -11 -11 -11 -11 -11 -11 -11 -11 -11 -11
-12 -11 -11 -12 -12 -11 -11 -11 -11 -10 -10 -11 -11 -11 -10 -11 -11 -10 -10 -10 -10 -11 -10 -10 -10 -10 -10 -11 -10 -10 -10 -11 -11 -11 -11 -11 -11 -11 -11 -11 -11 -11 -11 -11 -11 -11 -11 -11 -11
-12 -11 -12 -12 -12 -12 -12 -11 -11 -10 -10 -10 -10 -10 -10 -11 -11 -10 -11 -10 -11 -10 -10 -11 -11 -11 -10 -10 -10 -11 -11 -11 -11 -11 -11 -11 -11 -11 -11 -11 -11 -11 -11 -11 -11 -11 -11 -11 -11
-12 -12 -13 -12 -12 -11 -12 -10 -11 -11 -10 -10 -10 -10 -10 -11 -11 -10 -10 -10 -11 -11 -10 -10 -10 -10 -11 -11 -11 -11 -11 -11 -11 -11 -11 -11 -11 -11 -11 -11 -11 -11 -11 -11 -11 -11 -11 -11 -11
-12 -12 -13 -13 -12 -12 -12 -11 -10 -10 -10 -10 -10 -10 -10 -11 -11 -11 -11 -11 -11 -11 -10 -10 -10 -10 -10 -11 -11 -11 -11 -11 -11 -11 -11 -11 -11 -11 -11 -11 -11 -11 -11 -11 -11 -12 -12 -12 -12
-12 -12 -13 -13 -13 -13 -11 -12 -9 -11 -9 -10 -10 -10 -11 -11 -11 -11 -11 -11 -11 -11 -11 -10 -10 -10 -11 -11 -11 -11 -11 -11 -11 -11 -11 -10 -11 -11 -11 -11 -11 -11 -11 -12 -12 -12 -12 -12 -12
-12 -12 -13 -14 -14 -11 -11 -12 -8 -10 -11 -10 -10 -11 -11 -11 -11 -11 -11 -11 -11 -11 -11 -11 -11 -11 -11 -11 -11 -11 -11 -11 -11 -11 -11 -11 -11 -11 -11 -11 -11 -11 -12 -12 -12 -12 -12 -12 -13
-12 -12 -12 -13 -13 -12 -12 -11 -9 -10 -12 -10 -10 -11 -11 -11 -11 -11 -11 -11 -11 -11 -11 -11 -11 -11 -11 -11 -11 -11 -11 -11 -11 -11 -11 -11 -11 -11 -11 -11 -11 -12 -12 -12 -12 -12 -13 -13 -13
-13 -13 -13 -14 -13 -13 -12 -12 -12 -12 -12 -12 -10 -10 -11 -11 -11 -11 -11 -11 -11 -11 -11 -11 -11 -11 -11 -11 -11 -11 -11 -11 -11 -11 -11 -11 -11 -11 -11 -11 -12 -12 -12 -13 -13 -13 -13 -14 -14
-13 -14 -15 -15 -14 -13 -13 -12 -11 -11 -11 -12 -11 -10 -11 -11 -11 -11 -11 -11 -11 -11 -11 -11 -11 -11 -11 -11 -11 -11 -11 -11 -11 -11 -11 -11 -11 -11 -12 -12 -12 -12 -13 -13 -14 -14 -14 -15 -15
-14 -14 -14 -13 -14 -13 -13 -11 -11 -12 -12 -11 -12 -12 -11 -12 -12 -12 -11 -12 -11 -11 -11 -11 -11 -11 -11 -11 -11 -11 -11 -11 -11 -11 -11 -11 -11 -12 -12 -12 -13 -13 -14 -14 -14 -14 -15 -15 -16
-15 -15 -15 -15 -13 -13 -13 -11 -12 -11 -11 -12 -12 -12 -12 -12 -12 -12 -12 -12 -12 -12 -12 -12 -12 -12 -12 -12 -12 -12 -12 -12 -11 -11 -12 -12 -12 -12 -12 -13 -13 -14 -14 -14 -15 -15 -15 -16 -16
Height
5847 5849 5852 5855 5861 5861 5863 5864 5863 5862 5861 5860 5859 5860 5861 5859 5859 5862 5860 5860 5860 5860 5859 5861 5864 5867 5868 5869 5870 5872 5875 5876 5877 5878 5880 5882 5883 5883 5882 5883 5884 5884 5884 5884 5883 5882 5881 5881 5881
5844 5847 5850 5853 5858 5859 5862 5863 5861 5860 5859 5860 5860 5860 5861 5859 5859 5859 5859 5860 5859 5860 5860 5861 5864 5867 5868 5869 5871 5872 5873 5875 5878 5879 5881 5882 5882 5883 5883 5884 5884 5885 5884 5883 5882 5883 5882 5882 5882
5840 5844 5848 5852 5854 5858 5860 5862 5859 5858 5859 5859 5860 5860 5860 5860 5859 5859 5860 5860 5860 5860 5860 5862 5864 5867 5869 5870 5872 5873 5874 5876 5878 5880 5881 5881 5883 5884 5884 5885 5884 5885 5885 5884 5883 5883 5883 5883 5882
5837 5841 5847 5850 5853 5856 5858 5859 5858 5858 5859 5859 5859 5859 5861 5861 5860 5860 5860 5861 5862 5862 5862 5863 5865 5868 5870 5871 5872 5874 5876 5877 5879 5880 5881 5882 5883 5884 5884 5884 5885 5885 5885 5885 5885 5884 5884 5883 5882
5834 5839 5844 5848 5852 5854 5856 5857 5856 5858 5859 5858 5858 5859 5861 5861 5860 5861 5861 5861 5861 5863 5864 5865 5867 5868 5870 5872 5873 5875 5877 5878 5879 5880 5881 5883 5884 5885 5885 5886 5886 5886 5886 5886 5885 5885 5884 5883 5882
5833 5838 5843 5845 5850 5853 5854 5855 5856 5858 5858 5858 5858 5859 5860 5860 5860 5861 5862 5863 5862 5864 5864 5865 5868 5869 5871 5873 5874 5876 5877 5878 5880 5882 5883 5884 5885 5885 5886 5886 5887 5887 5888 5887 5886 5885 5885 5884 5883
5831 5836 5840 5841 5847 5851 5852 5854 5856 5857 5858 5857 5858 5859 5860 5859 5860 5861 5864 5865 5867 5867 5868 5869 5871 5872 5874 5875 5876 5877 5878 5879 5880 5882 5883 5884 5885 5886 5887 5887 5887 5888 5888 5888 5887 5886 5884 5884 5883
5829 5833 5837 5839 5845 5848 5851 5853 5855 5856 5858 5857 5858 5859 5860 5860 5860 5862 5865 5867 5869 5869 5870 5870 5872 5873 5875 5876 5877 5878 5879 5880 5881 5883 5884 5885 5886 5887 5887 5888 5889 5889 5889 5889 5888 5887 5885 5884 5884
5826 5831 5835 5839 5843 5846 5849 5851 5853 5855 5856 5857 5858 5859 5860 5860 5860 5862 5866 5867 5870 5871 5872 5872 5872 5874 5875 5876 5877 5878 5880 5882 5883 5885 5886 5887 5888 5889 5889 5890 5889 5890 5889 5889 5888 5887 5886 5885 5884
5821 5828 5834 5837 5841 5844 5846 5848 5850 5853 5855 5857 5857 5859 5859 5861 5862 5863 5864 5865 5869 5872 5872 5873 5874 5876 5877 5878 5879 5880 5881 5883 5884 5887 5889 5889 5889 5889 5890 5890 5890 5890 5889 5888 5888 5887 5886 5885 5884
5815 5825 5829 5834 5838 5841 5844 5848 5848 5851 5853 5854 5854 5859 5859 5862 5862 5862 5865 5866 5868 5870 5873 5875 5876 5877 5879 5880 5880 5880 5882 5884 5886 5888 5888 5889 5889 5890 5890 5890 5890 5889 5889 5889 5888 5887 5886 5885 5883
5812 5818 5823 5828 5834 5837 5841 5842 5846 5848 5850 5854 5854 5857 5859 5861 5863 5863 5863 5863 5867 5869 5870 5873 5876 5877 5879 5880 5881 5882 5883 5885 5887 5888 5889 5889 5890 5890 5890 5890 5890 5890 5889 5889 5888 5887 5886 5884 5882
5808 5814 5819 5823 5829 5834 5837 5840 5842 5845 5848 5852 5854 5855 5858 5861 5863 5865 5866 5866 5866 5868 5870 5872 5874 5876 5878 5881 5882 5884 5885 5887 5888 5888 5889 5889 5889 5889 5890 5889 5888 5888 5888 5887 5886 5885 5883 5882 5880
5803 5809 5814 5818 5823 5830 5834 5835 5838 5844 5847 5849 5850 5854 5857 5859 5861 5863 5865 5867 5867 5867 5869 5871 5872 5874 5877 5880 5882 5883 5885 5887 5887 5888 5888 5888 5888 5888 5888 5887 5887 5886 5886 5885 5884 5883 5881 5879 5877
5798 5802 5806 5811 5815 5824 5830 5831 5837 5840 5845 5846 5848 5852 5856 5859 5861 5862 5864 5867 5868 5868 5869 5869 5870 5872 5874 5877 5880 5883 5884 5886 5887 5887 5887 5887 5887 5886 5885 5885 5885 5884 5883 5882 5881 5879 5877 5876 5873
5792 5796 5802 5807 5811 5818 5824 5832 5836 5836 5841 5844 5845 5849 5853 5857 5859 5862 5863 5866 5869 5869 5869 5871 5871 5871 5872 5876 5878 5880 5883 5884 5886 5886 5886 5885 5885 5885 5884 5883 5882 5881 5880 5878 5877 5875 5873 5872 5870
5787 5791 5797 5803 5806 5811 5816 5828 5829 5832 5838 5840 5844 5846 5850 5852 5858 5862 5863 5865 5867 5868 5869 5871 5872 5874 5875 5876 5878 5879 5881 5882 5883 5883 5884 5884 5883 5882 5881 5879 5878 5876 5875 5874 5872 5871 5869 5868 5866
5780 5787 5791 5795 5801 5805 5810 5823 5825 5829 5833 5838 5840 5843 5847 5851 5854 5857 5859 5862 5866 5868 5868 5869 5870 5872 5874 5876 5878 5879 5880 5881 5882 5883 5882 5881 5880 5878 5877 5876 5875 5874 5872 5872 5870 5868 5865 5862 5861
5776 5779 5785 5788 5791 5797 5804 5814 5819 5824 5828 5831 5837 5841 5845 5849 5846 5851 5856 5858 5863 5866 5867 5867 5869 5870 5872 5874 5876 5877 5878 5879 5879 5879 5879 5878 5877 5876 5874 5872 5871 5869 5868 5867 5865 5863 5860 5857 5856
5769 5775 5779 5783 5786 5789 5795 5805 5811 5814 5823 5826 5831 5835 5840 5841 5844 5847 5851 5856 5858 5862 5863 5865 5865 5867 5869 5871 5872 5873 5874 5875 5874 5874 5874 5873 5872 5871 5870 5868 5867 5865 5863 5861 5859 5857 5855 5852 5850
5763 5769 5774 5778 5779 5781 5786 5791 5801 5806 5813 5817 5823 5829 5831 5835 5840 5843 5848 5850 5853 5857 5859 5861 5863 5864 5865 5867 5869 5869 5870 5870 5870 5870 5870 5869 5868 5867 5865 5863 5862 5860 5858 5855 5853 5850 5848 5845 5842
5757 5764 5767 5767 5770 5773 5779 5783 5793 5797 5806 5811 5816 5822 5829 5832 5836 5839 5843 5845 5849 5852 5853 5856 5859 5861 5862 5862 5864 5865 5865 5866 5865 5865 5864 5863 5863 5862 5860 5858 5856 5854 5851 5849 5846 5843 5840 5836 5834
5748 5756 5756 5761 5763 5765 5773 5772 5787 5790 5795 5803 5810 5815 5822 5828 5831 5835 5838 5839 5843 5846 5850 5850 5853 5855 5857 5857 5857 5858 5859 5859 5859 5859 5859 5858 5856 5855 5853 5852 5850 5847 5844 5841 5838 5835 5831 5828 5823
5738 5746 5749 5754 5755 5754 5770 5768 5773 5785 5790 5798 5803 5809 5816 5820 5825 5829 5831 5833 5838 5841 5844 5846 5847 5849 5850 5851 5852 5853 5853 5852 5853 5852 5851 5850 5849 5848 5846 5844 5841 5839 5835 5833 5829 5825 5822 5818 5814
5734 5739 5740 5744 5743 5748 5757 5757 5765 5776 5784 5791 5795 5801 5809 5813 5816 5820 5824 5827 5831 5834 5837 5839 5842 5842 5843 5844 5846 5847 5847 5847 5846 5845 5845 5843 5842 5840 5838 5836 5834 5831 5827 5823 5820 5816 5812 5808 5803
5724 5729 5733 5734 5738 5744 5744 5750 5757 5769 5776 5784 5789 5792 5796 5801 5806 5811 5817 5820 5823 5827 5830 5833 5835 5836 5837 5837 5839 5839 5840 5840 5839 5838 5837 5836 5834 5833 5830 5828 5825 5821 5818 5814 5810 5806 5802 5798 5794
5711 5716 5726 5726 5730 5731 5735 5749 5748 5758 5768 5775 5782 5785 5792 5796 5801 5807 5810 5813 5816 5820 5823 5825 5827 5829 5830 5831 5831 5832 5832 5833 5831 5830 5830 5828 5826 5824 5822 5819 5816 5812 5809 5805 5800 5796 5791 5787 5782
5700 5712 5713 5717 5723 5726 5733 5740 5746 5751 5762 5765 5773 5780 5785 5789 5795 5801 5803 5806 5810 5813 5814 5816 5818 5820 5821 5822 5823 5823 5823 5823 5822 5821 5821 5818 5817 5814 5812 5809 5806 5802 5799 5794 5790 5786 5781 5776 5770
5695 5697 5700 5710 5714 5718 5725 5731 5743 5745 5752 5754 5758 5768 5775 5779 5785 5790 5793 5796 5798 5800 5804 5807 5809 5811 5812 5814 5814 5815 5815 5815 5813 5812 5811 5809 5807 5805 5802 5799 5796 5792 5789 5785 5781 5776 5770 5765 5759
5684 5689 5694 5700 5709 5712 5716 5724 5730 5733 5738 5745 5748 5756 5764 5768 5773 5777 5781 5785 5788 5790 5794 5797 5798 5801 5802 5803 5805 5805 5805 5805 5804 5803 5802 5799 5797 5795 5792 5789 5786 5783 5779 5774 5770 5764 5759 5753 5747
Wind_Speed
25 27 27 24 20 17 16 20 16 12 9 7 6 4 3 2 6 6 4 5 3 2 2 5 11 11 9 8 8 9 8 4 11 9 11 9 7 4 4 4 5 6 7 8 10 8 7 9 8
27 29 28 24 19 16 18 17 14 10 8 7 5 0 1 8 7 8 7 5 4 2 4 8 13 17 12 9 7 11 8 14 9 11 11 8 5 3 3 4 5 6 6 6 5 7 8 9 10
30 32 29 26 19 17 19 15 12 7 8 7 3 3 5 8 8 8 5 4 2 3 6 11 13 18 13 8 13 17 17 15 14 12 10 6 3 1 2 4 4 4 4 4 5 8 9 10 10
30 33 28 25 21 19 19 14 10 8 7 7 4 5 7 9 10 9 6 4 4 5 10 15 18 19 16 18 17 18 16 16 11 10 7 5 3 3 2 2 3 4 5 5 6 8 8 8 8
30 32 29 24 21 21 18 12 11 9 8 7 5 7 9 10 12 10 9 5 7 12 16 21 19 17 15 17 17 16 16 15 12 9 7 7 5 3 2 3 5 4 5 5 5 5 6 8 9
30 30 26 23 21 22 16 13 12 11 10 8 6 8 9 10 12 10 9 6 13 20 23 21 17 15 18 18 15 14 14 14 11 10 8 6 5 4 5 4 5 5 5 4 5 7 8 9 10
32 30 26 25 21 22 16 15 15 13 12 8 8 10 11 11 12 10 9 9 18 18 19 20 22 20 18 16 14 14 13 11 11 10 8 6 6 5 6 5 4 3 3 5 6 7 9 10 11
35 32 28 26 23 22 19 17 16 15 13 11 10 11 11 12 13 11 10 11 14 15 15 17 19 19 18 15 13 13 12 11 11 9 8 7 7 7 5 2 3 5 6 7 7 8 10 11 12
36 35 32 26 22 23 22 20 18 17 15 13 12 13 12 12 13 14 13 12 9 12 11 13 16 20 19 17 15 14 14 12 10 9 9 8 5 4 3 5 5 5 5 6 8 9 10 10 11
39 35 31 28 24 26 24 24 22 20 18 16 14 14 13 12 12 12 15 14 10 9 11 12 15 18 17 16 16 15 14 12 10 8 6 4 5 5 4 4 4 5 7 8 9 9 10 11 13
34 37 35 32 28 28 26 25 24 22 21 21 19 17 15 14 14 16 14 14 14 14 13 14 14 15 15 14 15 15 14 12 9 6 7 6 5 3 4 5 6 6 7 8 9 10 12 13 14
31 35 40 37 32 31 28 30 26 24 26 21 20 17 16 17 15 17 19 22 19 18 17 15 14 14 15 15 14 13 12 10 9 9 5 4 5 5 6 6 7 8 9 10 11 13 14 16 17
35 38 41 41 35 34 34 31 30 29 26 23 20 20 19 17 17 17 17 19 22 20 19 18 17 16 15 14 12 11 11 12 9 7 5 4 3 5 6 7 7 9 10 12 14 15 16 18 20
28 37 39 43 39 36 37 36 33 30 27 25 24 22 21 20 19 19 19 20 21 23 22 19 19 18 15 14 13 13 13 10 8 5 2 1 3 5 7 9 10 12 14 14 15 16 18 21 23
35 34 40 41 43 39 40 40 33 33 31 28 26 24 22 21 19 21 20 20 20 21 21 23 23 18 17 15 15 14 12 9 6 3 3 4 7 8 9 11 13 15 16 18 20 21 23 24 26
38 33 42 40 43 41 43 38 36 34 32 31 28 26 23 21 22 21 19 19 20 20 21 21 21 21 20 18 17 14 10 7 5 5 7 10 11 12 12 14 16 17 19 20 22 24 26 28 29
40 31 33 41 45 44 44 39 40 38 36 34 30 28 27 25 21 19 20 21 21 21 19 19 17 17 17 17 15 13 11 8 8 9 11 14 15 16 17 18 20 21 22 23 25 27 29 31 32
45 36 34 44 43 45 43 40 41 41 38 36 33 32 29 26 24 24 24 23 23 21 20 18 18 17 17 16 14 12 10 10 11 13 16 17 18 18 19 21 22 23 25 26 28 29 31 32 33
42 47 35 34 33 40 39 43 44 44 42 40 36 32 30 28 32 27 27 25 24 22 22 22 22 22 19 18 15 13 14 14 16 17 18 18 19 20 21 22 24 26 28 29 30 32 34 36 35
49 37 38 33 35 39 37 42 47 49 46 42 39 37 35 36 33 29 29 27 26 26 25 23 23 19 19 17 16 15 17 19 20 19 19 20 21 22 23 25 27 29 30 31 32 33 35 37 36
45 46 43 45 40 42 38 39 52 52 50 47 44 42 42 38 35 33 33 31 30 28 28 26 25 22 21 20 19 21 21 22 21 22 22 23 24 25 25 27 29 31 33 34 35 37 37 39 40
48 47 46 52 50 48 42 48 51 55 55 50 47 45 41 38 36 34 35 33 32 32 30 28 27 26 25 25 23 23 23 23 24 24 25 25 25 27 28 30 30 32 34 36 37 38 38 41 44
48 44 50 48 49 49 49 50 41 60 58 54 50 47 42 40 39 37 36 35 35 34 32 32 31 28 27 27 26 25 26 26 26 25 26 25 25 27 30 31 33 34 36 37 38 39 41 43 45
48 48 49 53 52 56 56 56 58 56 60 55 53 48 44 43 41 41 40 39 37 36 35 34 32 30 30 30 29 27 27 28 28 27 26 27 28 30 33 34 36 37 38 39 40 41 43 45 48
49 48 51 52 56 61 55 56 56 44 61 57 54 48 46 47 47 46 43 39 39 37 37 35 35 34 34 34 32 31 30 30 30 30 30 30 31 34 35 37 39 41 40 40 42 43 45 48 51
45 49 54 54 57 53 57 51 45 34 52 61 60 54 54 53 52 49 46 43 43 41 39 38 37 38 38 37 35 34 32 33 32 33 34 34 36 37 39 40 41 43 42 42 43 45 47 50 56
51 51 48 53 57 56 47 45 44 39 41 55 63 59 55 53 52 50 47 46 46 45 41 42 42 41 41 39 38 37 36 35 35 35 36 37 39 40 42 43 44 45 46 45 44 46 48 55 59
53 46 51 52 52 54 53 51 51 47 41 44 60 61 55 52 51 50 48 48 47 48 47 46 45 43 42 42 41 40 40 38 38 37 39 40 41 42 44 45 46 47 46 45 45 47 54 59 59
51 51 52 50 53 54 54 58 54 56 50 45 51 60 57 51 51 50 51 49 50 50 50 48 47 46 45 44 44 44 43 41 41 41 42 42 43 46 47 48 48 47 44 45 48 54 57 59 62
55 55 55 52 51 55 55 47 49 53 51 44 47 56 57 47 51 51 53 54 53 50 50 49 50 49 48 47 45 45 44 43 44 43 44 45 47 48 49 49 46 45 45 47 54 57 60 62 64
Wind_Direction
211 211 217 218 222 228 239 245 254 264 284 304 297 309 328 97 98 98 105 123 110 113 157 184 185 192 176 189 216 217 208 182 134 121 119 117 115 116 72 29 22 17 8 355 341 342 353 8 19
214 213 217 215 220 230 236 242 248 265 288 284 274 259 118 108 100 107 99 96 116 92 121 152 163 155 155 148 149 123 130 150 149 141 136 137 140 103 30 20 28 12 351 338 335 1 25 38 37
218 214 215 216 218 230 233 238 246 259 274 266 240 126 127 115 104 95 86 104 127 146 121 139 158 161 151 163 140 134 139 147 145 148 148 139 132 158 35 39 12 353 1 356 23 43 45 40 29
221 215 211 213 221 223 228 232 243 246 248 245 194 145 139 125 116 85 74 91 166 148 129 133 140 147 141 143 137 136 141 143 156 156 162 172 158 132 92 40 27 17 57 56 50 48 37 27 12
211 210 208 212 227 221 219 217 229 240 225 225 177 156 149 136 115 91 70 84 146 147 135 133 146 152 148 140 142 140 143 158 160 171 169 149 141 130 86 59 68 77 73 62 43 29 16 16 17
212 214 212 219 219 222 214 211 219 230 222 209 174 157 155 136 126 100 79 79 134 137 137 145 150 160 152 147 148 157 158 159 152 143 146 139 142 123 103 94 91 82 70 42 17 18 29 27 19
218 217 218 221 212 220 208 205 214 220 215 194 174 162 160 133 130 123 100 103 138 135 139 140 139 141 149 159 159 167 168 159 145 149 149 146 127 110 99 88 82 67 41 39 37 23 13 16 19
220 220 225 219 208 211 208 205 211 216 203 191 169 163 163 144 136 134 127 116 157 155 153 150 152 159 164 167 163 161 150 148 151 147 145 140 128 120 121 121 63 53 47 34 21 14 14 15 15
224 224 227 223 209 211 210 206 207 207 197 190 172 173 165 161 147 148 148 132 161 186 179 173 168 169 169 167 161 155 148 149 144 147 150 138 115 94 81 68 57 41 28 21 18 17 12 5 358
228 227 231 228 214 212 212 204 204 201 193 187 182 181 168 171 161 161 158 152 153 165 189 177 166 168 169 166 156 151 148 146 140 140 131 112 103 96 71 40 21 18 14 10 6 0 356 353 349
229 229 229 232 218 213 212 208 204 205 198 191 188 188 177 182 170 169 168 162 170 173 175 172 173 172 169 163 158 154 148 140 143 147 126 120 103 62 31 19 10 1 356 352 347 344 344 343 340
230 227 230 231 225 212 210 207 206 204 202 199 192 190 186 185 191 179 174 167 173 179 178 178 177 173 170 165 161 155 150 148 140 125 106 69 43 32 20 6 351 338 337 336 338 337 335 333 331
232 230 231 231 228 214 215 208 205 209 205 196 194 195 192 195 195 194 185 178 171 176 175 173 172 172 173 172 170 163 152 142 135 124 108 79 37 8 351 336 328 329 333 336 337 335 331 329 328
231 232 237 232 228 221 215 211 209 210 210 196 195 201 198 195 197 197 199 195 186 180 176 180 177 176 181 179 174 161 152 150 148 142 117 19 338 327 321 322 325 329 330 331 329 324 324 324 323
229 225 228 234 225 222 219 219 208 210 212 198 198 200 205 199 204 205 204 207 203 194 188 185 180 182 182 179 168 166 167 169 173 186 245 277 298 306 314 320 320 318 321 326 324 323 323 320 320
237 236 231 231 236 221 224 217 218 211 212 205 202 199 205 205 206 211 207 210 213 204 199 198 193 182 180 177 174 177 182 193 218 253 273 285 294 302 309 309 311 316 320 320 320 319 317 318 320
237 238 239 232 236 231 225 216 219 216 212 211 205 202 206 209 210 215 212 213 213 212 203 204 198 196 188 184 187 190 202 218 241 259 275 286 295 301 304 306 310 315 316 316 316 317 318 318 318
232 237 236 232 234 244 225 221 222 221 214 215 209 208 209 210 210 211 215 214 216 214 207 206 206 205 199 201 207 214 228 242 258 271 278 286 292 296 299 303 308 310 311 313 313 314 313 314 315
233 240 238 227 229 238 243 220 222 224 220 216 216 214 213 212 217 214 221 219 221 221 217 212 210 205 206 212 222 234 245 256 264 270 279 284 288 293 297 303 305 305 307 308 310 310 311 313 316
235 229 224 237 244 237 241 224 221 223 223 217 216 217 216 215 217 217 224 224 221 224 224 220 215 213 220 228 238 250 262 267 272 276 280 285 288 293 297 300 300 302 304 303 303 304 306 309 312
231 236 250 243 240 243 242 238 219 224 222 218 217 218 218 217 217 215 222 224 224 223 223 222 221 221 229 238 246 252 258 265 270 275 280 284 287 291 293 294 296 298 299 300 302 304 307 308 308
241 240 241 245 236 245 251 238 223 221 226 223 220 221 222 222 222 219 221 222 225 226 223 221 226 229 235 244 251 255 259 264 268 274 276 280 287 289 288 290 293 294 296 300 302 304 307 307 310
238 238 240 244 242 245 247 251 225 222 222 223 222 222 222 223 223 220 220 222 226 229 228 227 232 239 246 248 249 254 261 265 271 276 280 283 284 285 286 289 292 295 297 299 302 305 306 307 309
232 236 240 242 242 248 249 258 234 228 227 224 222 223 223 225 224 224 224 224 227 231 235 239 242 245 249 255 259 260 264 271 275 275 278 280 284 284 288 291 294 296 298 301 303 305 307 308 308
233 236 234 239 241 249 252 253 240 231 230 224 224 222 224 227 227 225 226 227 231 234 238 241 244 247 250 254 259 264 268 273 277 278 281 282 283 286 290 292 295 297 299 300 302 303 304 305 305
232 237 239 244 244 256 259 254 237 236 236 231 226 225 223 224 227 227 227 227 233 236 238 242 246 250 254 256 259 264 269 273 276 278 280 282 285 287 288 291 294 295 297 298 300 300 302 303 307
227 232 237 241 243 253 256 249 245 249 250 242 232 229 230 229 231 231 231 231 234 238 240 242 245 248 253 259 263 267 270 273 275 276 278 280 282 285 289 292 293 294 296 297 297 299 302 306 308
225 228 234 236 244 249 260 253 246 253 260 251 237 237 234 235 236 237 238 238 239 242 243 244 245 249 254 259 264 267 269 271 273 276 277 279 283 286 288 289 291 293 294 294 296 299 305 309 308
230 230 231 237 239 248 259 254 249 258 265 261 245 237 235 236 237 238 239 241 241 242 246 247 248 251 254 258 262 265 269 272 274 276 278 281 283 284 285 286 288 290 291 294 297 303 306 308 308
231 232 233 238 242 248 251 253 258 260 261 259 251 241 236 235 237 237 240 241 242 244 247 250 252 254 257 259 263 266 268 269 272 275 277 278 279 280 282 284 286 287 290 293 301 305 306 308 307